User: anonymous   Login
Location: Unspecified
(0.0000°N, 0.0000°E)
Time: 02:26:03
(UTC+00:00)
Language:

BIRD MM - Orbit

View from above orbital plane
View from above orbital plane
View from above satellite
View from above satellite

Ground track
Ground track

The orbit data is extracted from the following two-line orbital elements,

1 42822U 98067MW  19049.53501464  .00071431  00000-0  30005-3 0  9996
2 42822  51.6311 175.4221 0002709   2.1831 357.9184 15.84860592 92648
Epoch (UTC): 18 February 2019 12:50:25
Eccentricity: 0.0002709
inclination: 51.6311°
perigee height: 315 km
apogee height: 318 km
right ascension of ascending node: 175.4221°
argument of perigee: 2.1831°
revolutions per day: 15.84860592
mean anomaly at epoch: 357.9184°
orbit number at epoch: 9264

The dashed part of the orbit path shows where the satellite is in the earth's shadow,  

DLR